When you browse on this site, cookies collect data to enhance your experience and personalize the content and advertising you see.
Visit our Privacy Policy to learn more. By continuing to use the site, you agree to this use of cookies and data.
  • In Hungary
  • List of Countries
  • For 7 days
  • Water Temperature
  • Weather Map
  • News
  • Weather Widgets
  • user-avatar
    Login

    Hourly Weather Narita

    Today, 11 December, Wednesday

    Time Temperature Precipitation Wind Pressure Humidity
    00:00 +13°C° 0 mm 1 mps 761 mmHg 82%
    01:00 +13°C° 0 mm 1 mps 761 mmHg 82%
    02:00 +13°C° 0 mm 1 mps 761 mmHg 83%
    03:00 +11°C° 0 mm 0 mps 761 mmHg 84%
    04:00 +11°C° 0 mm 0 mps 761 mmHg 84%
    05:00 +11°C° 0 mm 0 mps 761 mmHg 84%
    06:00 +12°C° 0 mm 1 mps 760 mmHg 84%
    07:00 +13°C° 0 mm 1 mps 761 mmHg 81%
    08:00 +13°C° 0 mm 1 mps 761 mmHg 78%
    09:00 +13°C° 0 mm 0 mps 761 mmHg 73%
    10:00 +14°C° 0 mm 0 mps 760 mmHg 69%
    11:00 +16°C° 0 mm 1 mps 759 mmHg 66%
    12:00 +18°C° 0 mm 1 mps 759 mmHg 63%
    13:00 +18°C° 0 mm 1 mps 758 mmHg 64%
    14:00 +18°C° 0 mm 1 mps 758 mmHg 66%
    15:00 +18°C° 0 mm 1 mps 757 mmHg 71%
    16:00 +18°C° 0.3 mm 1 mps 757 mmHg 75%
    17:00 +18°C° 0.3 mm 1 mps 756 mmHg 79%
    18:00 +16°C° 0.3 mm 1 mps 756 mmHg 83%
    19:00 +16°C° 0.3 mm 1 mps 756 mmHg 83%
    20:00 +16°C° 0.3 mm 1 mps 755 mmHg 84%
    21:00 +16°C° 0.3 mm 2 mps 755 mmHg 84%
    22:00 +15°C° 0 mm 2 mps 754 mmHg 82%
    23:00 +15°C° 0 mm 2 mps 754 mmHg 80%

    Tomorrow, 12 December, Thursday

    Time Temperature Precipitation Wind Pressure Humidity
    00:00 +13°C° 0 mm 3 mps 753 mmHg 78%
    01:00 +14°C° 0 mm 2 mps 754 mmHg 74%
    02:00 +13°C° 0 mm 2 mps 754 mmHg 70%
    03:00 +13°C° 0 mm 1 mps 754 mmHg 67%
    04:00 +13°C° 0 mm 1 mps 754 mmHg 65%
    05:00 +12°C° 0 mm 1 mps 754 mmHg 63%
    06:00 +12°C° 0 mm 1 mps 754 mmHg 62%
    07:00 +13°C° 0 mm 1 mps 754 mmHg 58%
    08:00 +14°C° 0 mm 2 mps 755 mmHg 55%
    09:00 +15°C° 0 mm 2 mps 755 mmHg 51%
    10:00 +16°C° 0 mm 2 mps 755 mmHg 45%
    11:00 +17°C° 0 mm 2 mps 755 mmHg 39%
    12:00 +18°C° 0 mm 3 mps 755 mmHg 33%
    13:00 +18°C° 0 mm 3 mps 755 mmHg 32%
    14:00 +18°C° 0 mm 3 mps 756 mmHg 31%
    15:00 +18°C° 0 mm 3 mps 756 mmHg 30%
    16:00 +16°C° 0 mm 3 mps 757 mmHg 31%
    17:00 +13°C° 0 mm 4 mps 759 mmHg 33%
    18:00 +12°C° 0 mm 5 mps 760 mmHg 35%
    19:00 +10°C° 0 mm 5 mps 761 mmHg 35%
    20:00 +9°C° 0 mm 5 mps 762 mmHg 34%
    21:00 +8°C° 0 mm 5 mps 763 mmHg 34%
    22:00 +8°C° 0 mm 4 mps 763 mmHg 34%
    23:00 +7°C° 0 mm 4 mps 764 mmHg 35%

    Day after tomorrow, 13 December, Friday

    Time Temperature Precipitation Wind Pressure Humidity
    00:00 +7°C° 0 mm 4 mps 765 mmHg 35%
    01:00 +8°C° 0 mm 3 mps 765 mmHg 36%
    02:00 +7°C° 0 mm 3 mps 765 mmHg 37%
    03:00 +7°C° 0 mm 3 mps 765 mmHg 38%
    04:00 +7°C° 0 mm 2 mps 766 mmHg 39%
    05:00 +6°C° 0 mm 2 mps 766 mmHg 40%
    06:00 +6°C° 0 mm 2 mps 767 mmHg 41%
    07:00 +7°C° 0 mm 2 mps 767 mmHg 41%
    08:00 +7°C° 0 mm 2 mps 767 mmHg 41%
    09:00 +7°C° 0 mm 2 mps 767 mmHg 41%
    10:00 +8°C° 0 mm 2 mps 767 mmHg 42%
    11:00 +9°C° 0 mm 1 mps 767 mmHg 42%
    12:00 +9°C° 0 mm 1 mps 767 mmHg 42%
    13:00 +8°C° 0 mm 2 mps 767 mmHg 45%
    14:00 +8°C° 0 mm 2 mps 767 mmHg 47%
    15:00 +8°C° 0 mm 2 mps 766 mmHg 50%
    16:00 +8°C° 0 mm 2 mps 767 mmHg 53%
    17:00 +8°C° 0 mm 2 mps 767 mmHg 56%
    18:00 +8°C° 0 mm 2 mps 767 mmHg 59%
    19:00 +9°C° 0 mm 2 mps 767 mmHg 61%
    20:00 +9°C° 0 mm 2 mps 766 mmHg 64%
    21:00 +9°C° 0 mm 2 mps 766 mmHg 66%
    22:00 +9°C° 0 mm 2 mps 766 mmHg 68%
    23:00 +9°C° 0 mm 2 mps 765 mmHg 69%

    14 December, Saturday

    Time Temperature Precipitation Wind Pressure Humidity
    00:00 +9°C° 0 mm 3 mps 765 mmHg 71%
    01:00 +9°C° 0 mm 2 mps 764 mmHg 69%
    02:00 +9°C° 0 mm 2 mps 764 mmHg 67%
    03:00 +9°C° 0 mm 2 mps 763 mmHg 66%
    04:00 +10°C° 0 mm 1 mps 763 mmHg 63%
    05:00 +10°C° 0 mm 1 mps 762 mmHg 60%
    06:00 +9°C° 0 mm 1 mps 762 mmHg 58%
    07:00 +10°C° 0 mm 1 mps 762 mmHg 57%
    08:00 +11°C° 0 mm 1 mps 761 mmHg 55%
    09:00 +11°C° 0 mm 1 mps 761 mmHg 54%
    10:00 +13°C° 0 mm 2 mps 760 mmHg 49%
    11:00 +13°C° 0 mm 3 mps 760 mmHg 43%
    12:00 +14°C° 0 mm 4 mps 759 mmHg 38%
    13:00 +14°C° 0 mm 4 mps 758 mmHg 36%
    14:00 +16°C° 0 mm 3 mps 758 mmHg 35%
    15:00 +16°C° 0 mm 3 mps 758 mmHg 33%
    16:00 +15°C° 0 mm 2 mps 758 mmHg 34%
    17:00 +14°C° 0 mm 2 mps 759 mmHg 35%
    18:00 +14°C° 0 mm 1 mps 759 mmHg 36%
    19:00 +13°C° 0 mm 2 mps 760 mmHg 37%
    20:00 +12°C° 0 mm 3 mps 760 mmHg 39%
    21:00 +11°C° 0 mm 3 mps 761 mmHg 40%
    22:00 +10°C° 0 mm 3 mps 761 mmHg 42%
    23:00 +9°C° 0 mm 3 mps 762 mmHg 43%

    15 December, Sunday

    Time Temperature Precipitation Wind Pressure Humidity
    00:00 +8°C° 0 mm 4 mps 762 mmHg 45%
    01:00 +8°C° 0 mm 3 mps 763 mmHg 43%
    02:00 +8°C° 0 mm 3 mps 763 mmHg 40%
    03:00 +8°C° 0 mm 3 mps 764 mmHg 38%
    04:00 +7°C° 0 mm 3 mps 765 mmHg 39%
    05:00 +7°C° 0 mm 3 mps 765 mmHg 40%
    06:00 +5°C° 0 mm 3 mps 766 mmHg 40%
    07:00 +7°C° 0 mm 3 mps 766 mmHg 39%
    08:00 +7°C° 0 mm 3 mps 767 mmHg 37%
    09:00 +7°C° 0 mm 3 mps 768 mmHg 36%
    10:00 +8°C° 0 mm 2 mps 768 mmHg 32%
    11:00 +9°C° 0 mm 2 mps 767 mmHg 29%
    12:00 +10°C° 0 mm 2 mps 767 mmHg 26%
    13:00 +10°C° 0 mm 2 mps 767 mmHg 25%
    14:00 +12°C° 0 mm 1 mps 767 mmHg 25%
    15:00 +12°C° 0 mm 1 mps 768 mmHg 25%
    16:00 +11°C° 0 mm 1 mps 768 mmHg 26%
    17:00 +11°C° 0 mm 1 mps 769 mmHg 28%
    18:00 +10°C° 0 mm 1 mps 769 mmHg 30%
    19:00 +10°C° 0 mm 1 mps 769 mmHg 33%
    20:00 +10°C° 0 mm 1 mps 769 mmHg 35%
    21:00 +9°C° 0 mm 1 mps 769 mmHg 38%
    22:00 +9°C° 0 mm 1 mps 769 mmHg 43%
    23:00 +9°C° 0 mm 1 mps 769 mmHg 49%

    16 December, Monday

    Time Temperature Precipitation Wind Pressure Humidity
    00:00 +9°C° 0 mm 1 mps 769 mmHg 55%
    01:00 +9°C° 0 mm 1 mps 768 mmHg 55%
    02:00 +8°C° 0 mm 1 mps 768 mmHg 56%
    03:00 +8°C° 0 mm 1 mps 768 mmHg 56%
    04:00 +8°C° 0 mm 1 mps 768 mmHg 55%
    05:00 +8°C° 0 mm 1 mps 768 mmHg 54%
    06:00 +8°C° 0 mm 1 mps 768 mmHg 54%
    07:00 +8°C° 0 mm 1 mps 768 mmHg 52%
    08:00 +9°C° 0 mm 1 mps 768 mmHg 50%
    09:00 +9°C° 0 mm 1 mps 768 mmHg 49%
    10:00 +10°C° 0 mm 1 mps 767 mmHg 48%
    11:00 +10°C° 0 mm 1 mps 766 mmHg 48%
    12:00 +11°C° 0 mm 1 mps 766 mmHg 48%
    13:00 +12°C° 0 mm 1 mps 766 mmHg 49%
    14:00 +11°C° 0 mm 0 mps 765 mmHg 49%
    15:00 +12°C° 0 mm 0 mps 765 mmHg 50%
    16:00 +11°C° 0 mm 0 mps 765 mmHg 53%
    17:00 +11°C° 0 mm 0 mps 766 mmHg 55%
    18:00 +10°C° 0 mm 0 mps 766 mmHg 58%
    19:00 +11°C° 0 mm 1 mps 766 mmHg 59%
    20:00 +11°C° 0 mm 1 mps 766 mmHg 61%
    21:00 +11°C° 0 mm 1 mps 766 mmHg 62%
    22:00 +11°C° 0 mm 1 mps 765 mmHg 62%
    23:00 +11°C° 0 mm 1 mps 765 mmHg 61%
    Show more